Location: Aydie
(43.5695°N, 0.1043°W)
Time: 12:17:45
(UTC+00:00)

Cosmos 1869 - Pass Details

Date: 17 November 2025
Orbit: 453 x 481 km, 82.5° (Epoch: 10 December)

Event Time Altitude Azimuth Distance (km) Brightness Sun altitude
Rises 17:09:31 0° 169° (S) 2,490 6.8 -6.9°
Reaches altitude 10° 17:11:41 10° 161° (SSE) 1,614 5.7 -7.2°
Maximum altitude 17:14:57 37° 93° (E) 735 3.5 -7.8°
Drops below altitude 10° 17:18:13 10° 25° (NNE) 1,612 5.3 -8.3°
Sets 17:20:23 0° 17° (NNE) 2,488 6.3 -8.7°
